Year,Month,Day,Hour,Minute,Value (Times are PST for temperature in C)
2016,06,02,00,00,13.70
2016,06,02,00,01,13.70
2016,06,02,00,02,13.70
2016,06,02,00,03,13.70
2016,06,02,00,04,13.70
2016,06,02,00,05,13.70
2016,06,02,00,06,13.70
2016,06,02,00,07,13.70
2016,06,02,00,08,13.60
2016,06,02,00,09,13.60
2016,06,02,00,10,13.50
2016,06,02,00,11,13.50
2016,06,02,00,12,13.50
2016,06,02,00,13,13.50
2016,06,02,00,14,13.40
2016,06,02,00,15,13.40
2016,06,02,00,16,13.40
2016,06,02,00,17,13.40
2016,06,02,00,18,13.40
2016,06,02,00,19,13.50
2016,06,02,00,20,13.50
2016,06,02,00,21,13.50
2016,06,02,00,22,13.60
2016,06,02,00,23,13.60
2016,06,02,00,24,13.60
2016,06,02,00,25,13.60
2016,06,02,00,26,13.70
2016,06,02,00,27,13.70
2016,06,02,00,28,13.70
2016,06,02,00,29,13.70
2016,06,02,00,30,13.80
2016,06,02,00,31,13.80
2016,06,02,00,32,13.80
2016,06,02,00,33,13.80
2016,06,02,00,34,13.80
2016,06,02,00,35,13.80
2016,06,02,00,36,13.80
2016,06,02,00,37,13.80
2016,06,02,00,38,13.80
2016,06,02,00,39,13.80
2016,06,02,00,40,13.80
2016,06,02,00,41,13.80
2016,06,02,00,42,13.80
2016,06,02,00,43,13.80
2016,06,02,00,44,13.80
2016,06,02,00,45,13.80
2016,06,02,00,46,13.80
2016,06,02,00,47,13.90
2016,06,02,00,48,13.90
2016,06,02,00,49,13.90
2016,06,02,00,50,13.90
2016,06,02,00,51,13.90
2016,06,02,00,52,13.90
2016,06,02,00,53,13.90
2016,06,02,00,54,13.90
2016,06,02,00,55,13.90
2016,06,02,00,56,13.90
2016,06,02,00,57,13.90
2016,06,02,00,58,13.90
2016,06,02,00,59,13.90
2016,06,02,01,00,13.90
2016,06,02,01,01,13.90
2016,06,02,01,02,13.80
2016,06,02,01,03,13.80
2016,06,02,01,04,13.80
2016,06,02,01,05,13.80
2016,06,02,01,06,13.80
2016,06,02,01,07,13.80
2016,06,02,01,08,13.80
2016,06,02,01,09,13.70
2016,06,02,01,10,13.70
2016,06,02,01,11,13.70
2016,06,02,01,12,13.70
2016,06,02,01,13,13.70
2016,06,02,01,14,13.60
2016,06,02,01,15,13.60
2016,06,02,01,16,13.60
2016,06,02,01,17,13.60
2016,06,02,01,18,13.50
2016,06,02,01,19,13.50
2016,06,02,01,20,13.50
2016,06,02,01,21,13.50
2016,06,02,01,22,13.50
2016,06,02,01,23,13.40
2016,06,02,01,24,13.40
2016,06,02,01,25,13.40
2016,06,02,01,26,13.40
2016,06,02,01,27,13.40
2016,06,02,01,28,13.40
2016,06,02,01,29,13.40
2016,06,02,01,30,13.40
2016,06,02,01,31,13.40
2016,06,02,01,32,13.40
2016,06,02,01,33,13.40
2016,06,02,01,34,13.40
2016,06,02,01,35,13.40
2016,06,02,01,36,13.40
2016,06,02,01,37,13.40
2016,06,02,01,38,13.40
2016,06,02,01,39,13.40
2016,06,02,01,40,13.30
2016,06,02,01,41,13.30
2016,06,02,01,42,13.30
2016,06,02,01,43,13.30
2016,06,02,01,44,13.30
2016,06,02,01,45,13.30
2016,06,02,01,46,13.30
2016,06,02,01,47,13.30
2016,06,02,01,48,13.30
2016,06,02,01,49,13.30
2016,06,02,01,50,13.30
2016,06,02,01,51,13.30
2016,06,02,01,52,13.30
2016,06,02,01,53,13.30
2016,06,02,01,54,13.30
2016,06,02,01,55,13.30
2016,06,02,01,56,13.30
2016,06,02,01,57,13.30
2016,06,02,01,58,13.30
2016,06,02,01,59,13.30
2016,06,02,02,00,13.30
2016,06,02,02,01,13.30
2016,06,02,02,02,13.30
2016,06,02,02,03,13.30
2016,06,02,02,04,13.30
2016,06,02,02,05,13.30
2016,06,02,02,06,13.30
2016,06,02,02,07,13.30
2016,06,02,02,08,13.30
2016,06,02,02,09,13.30
2016,06,02,02,10,13.30
2016,06,02,02,11,13.30
2016,06,02,02,12,13.30
2016,06,02,02,13,13.20
2016,06,02,02,14,13.30
2016,06,02,02,15,13.30
2016,06,02,02,16,13.30
2016,06,02,02,17,13.30
2016,06,02,02,18,13.30
2016,06,02,02,19,13.30
2016,06,02,02,20,13.30
2016,06,02,02,21,13.30
2016,06,02,02,22,13.30
2016,06,02,02,23,13.30
2016,06,02,02,24,13.30
2016,06,02,02,25,13.30
2016,06,02,02,26,13.30
2016,06,02,02,27,13.20
2016,06,02,02,28,13.20
2016,06,02,02,29,13.20
2016,06,02,02,30,13.20
2016,06,02,02,31,13.20
2016,06,02,02,32,13.20
2016,06,02,02,33,13.20
2016,06,02,02,34,13.10
2016,06,02,02,35,13.10
2016,06,02,02,36,13.10
2016,06,02,02,37,13.10
2016,06,02,02,38,13.10
2016,06,02,02,39,13.10
2016,06,02,02,40,13.10
2016,06,02,02,41,13.10
2016,06,02,02,42,13.10
2016,06,02,02,43,13.00
2016,06,02,02,44,13.00
2016,06,02,02,45,13.00
2016,06,02,02,46,13.00
2016,06,02,02,47,13.00
2016,06,02,02,48,13.00
2016,06,02,02,49,13.00
2016,06,02,02,50,13.00
2016,06,02,02,51,12.90
2016,06,02,02,52,12.90
2016,06,02,02,53,12.90
2016,06,02,02,54,12.90
2016,06,02,02,55,12.90
2016,06,02,02,56,12.90
2016,06,02,02,57,12.90
2016,06,02,02,58,12.90
2016,06,02,02,59,12.90
2016,06,02,03,00,12.90
2016,06,02,03,01,12.90
2016,06,02,03,02,12.90
2016,06,02,03,03,12.90
2016,06,02,03,04,12.90
2016,06,02,03,05,12.90
2016,06,02,03,06,12.90
2016,06,02,03,07,12.90
2016,06,02,03,08,12.90
2016,06,02,03,09,12.90
2016,06,02,03,10,12.90
2016,06,02,03,11,12.90
2016,06,02,03,12,12.90
2016,06,02,03,13,12.90
2016,06,02,03,14,12.90
2016,06,02,03,15,12.90
2016,06,02,03,16,12.90
2016,06,02,03,17,12.90
2016,06,02,03,18,12.90
2016,06,02,03,19,12.90
2016,06,02,03,20,12.90
2016,06,02,03,21,12.90
2016,06,02,03,22,12.90
2016,06,02,03,23,12.90
2016,06,02,03,24,12.90
2016,06,02,03,25,12.90
2016,06,02,03,26,12.90
2016,06,02,03,27,12.90
2016,06,02,03,28,12.90
2016,06,02,03,29,12.90
2016,06,02,03,30,12.90
2016,06,02,03,31,12.90
2016,06,02,03,32,12.90
2016,06,02,03,33,13.00
2016,06,02,03,34,13.00
2016,06,02,03,35,13.00
2016,06,02,03,36,13.00
2016,06,02,03,37,13.00
2016,06,02,03,38,13.00
2016,06,02,03,39,13.00
2016,06,02,03,40,13.00
2016,06,02,03,41,13.00
2016,06,02,03,42,13.00
2016,06,02,03,43,13.00
2016,06,02,03,44,13.00
2016,06,02,03,45,13.00
2016,06,02,03,46,13.00
2016,06,02,03,47,12.90
2016,06,02,03,48,12.90
2016,06,02,03,49,12.90
2016,06,02,03,50,12.90
2016,06,02,03,51,12.90
2016,06,02,03,52,12.90
2016,06,02,03,53,12.80
2016,06,02,03,54,12.80
2016,06,02,03,55,12.80
2016,06,02,03,56,12.80
2016,06,02,03,57,12.80
2016,06,02,03,58,12.90
2016,06,02,03,59,12.80
2016,06,02,04,00,12.80
2016,06,02,04,01,12.80
2016,06,02,04,02,12.80
2016,06,02,04,04,12.80
2016,06,02,04,05,12.80
2016,06,02,04,06,12.80
2016,06,02,04,07,12.80
2016,06,02,04,08,12.80
2016,06,02,04,09,12.80
2016,06,02,04,10,12.80
2016,06,02,04,11,12.80
2016,06,02,04,12,12.80
2016,06,02,04,13,12.80
2016,06,02,04,14,12.80
2016,06,02,04,15,12.80
2016,06,02,04,16,12.80
2016,06,02,04,17,12.80
2016,06,02,04,18,12.80
2016,06,02,04,19,12.80
2016,06,02,04,20,12.80
2016,06,02,04,21,12.80
2016,06,02,04,22,12.80
2016,06,02,04,23,12.80
2016,06,02,04,24,12.80
2016,06,02,04,25,12.80
2016,06,02,04,26,12.80
2016,06,02,04,27,12.80
2016,06,02,04,28,12.80
2016,06,02,04,29,12.80
2016,06,02,04,30,12.80
2016,06,02,04,31,12.80
2016,06,02,04,32,12.80
2016,06,02,04,33,12.80
2016,06,02,04,34,12.80
2016,06,02,04,35,12.80
2016,06,02,04,36,12.80
2016,06,02,04,37,12.80
2016,06,02,04,38,12.80
2016,06,02,04,39,12.80
2016,06,02,04,40,12.80
2016,06,02,04,41,12.80
2016,06,02,04,42,12.80
2016,06,02,04,43,12.80
2016,06,02,04,44,12.80
2016,06,02,04,45,12.90
2016,06,02,04,46,12.90
2016,06,02,04,47,12.90
2016,06,02,04,48,12.90
2016,06,02,04,49,12.90
2016,06,02,04,50,12.90
2016,06,02,04,51,12.90
2016,06,02,04,52,12.90
2016,06,02,04,53,12.90
2016,06,02,04,54,12.90
2016,06,02,04,55,12.90
2016,06,02,04,56,12.90
2016,06,02,04,57,12.80
2016,06,02,04,58,12.80
2016,06,02,04,59,12.80
2016,06,02,05,00,12.80
2016,06,02,05,01,12.80
2016,06,02,05,02,12.80
2016,06,02,05,03,12.80
2016,06,02,05,04,12.70
2016,06,02,05,05,12.70
2016,06,02,05,06,12.70
2016,06,02,05,07,12.70
2016,06,02,05,08,12.70
2016,06,02,05,09,12.70
2016,06,02,05,10,12.70
2016,06,02,05,11,12.70
2016,06,02,05,12,12.60
2016,06,02,05,13,12.60
2016,06,02,05,14,12.60
2016,06,02,05,15,12.60
2016,06,02,05,16,12.60
2016,06,02,05,17,12.60
2016,06,02,05,18,12.60
2016,06,02,05,19,12.50
2016,06,02,05,20,12.50
2016,06,02,05,21,12.50
2016,06,02,05,22,12.40
2016,06,02,05,23,12.40
2016,06,02,05,24,12.40
2016,06,02,05,25,12.30
2016,06,02,05,26,12.30
2016,06,02,05,27,12.30
2016,06,02,05,28,12.30
2016,06,02,05,29,12.30
2016,06,02,05,30,12.30
2016,06,02,05,31,12.30
2016,06,02,05,32,12.30
2016,06,02,05,33,12.30
2016,06,02,05,34,12.30
2016,06,02,05,35,12.30
2016,06,02,05,36,12.30
2016,06,02,05,37,12.30
2016,06,02,05,38,12.30
2016,06,02,05,39,12.30
2016,06,02,05,40,12.30
2016,06,02,05,41,12.30
2016,06,02,05,42,12.30
2016,06,02,05,43,12.30
2016,06,02,05,44,12.40
2016,06,02,05,45,12.40
2016,06,02,05,46,12.40
2016,06,02,05,47,12.40
2016,06,02,05,48,12.40
2016,06,02,05,49,12.40
2016,06,02,05,50,12.40
2016,06,02,05,51,12.40
2016,06,02,05,52,12.40
2016,06,02,05,53,12.40
2016,06,02,05,54,12.40
2016,06,02,05,55,12.30
2016,06,02,05,56,12.30
2016,06,02,05,57,12.30
2016,06,02,05,58,12.30
2016,06,02,05,59,12.30
2016,06,02,06,00,12.30
2016,06,02,06,01,12.30
2016,06,02,06,02,12.30
2016,06,02,06,03,12.30
2016,06,02,06,04,12.30
2016,06,02,06,05,12.30
2016,06,02,06,06,12.20
2016,06,02,06,07,12.20
2016,06,02,06,08,12.20
2016,06,02,06,09,12.20
2016,06,02,06,10,12.20
2016,06,02,06,11,12.20
2016,06,02,06,12,12.30
2016,06,02,06,13,12.30
2016,06,02,06,14,12.30
2016,06,02,06,15,12.30
2016,06,02,06,16,12.30
2016,06,02,06,17,12.30
2016,06,02,06,18,12.30
2016,06,02,06,19,12.30
2016,06,02,06,20,12.40
2016,06,02,06,21,12.40
2016,06,02,06,22,12.40
2016,06,02,06,23,12.40
2016,06,02,06,24,12.50
2016,06,02,06,25,12.50
2016,06,02,06,26,12.50
2016,06,02,06,27,12.60
2016,06,02,06,28,12.60
2016,06,02,06,29,12.60
2016,06,02,06,30,12.60
2016,06,02,06,31,12.60
2016,06,02,06,32,12.60
2016,06,02,06,33,12.60
2016,06,02,06,34,12.60
2016,06,02,06,35,12.60
2016,06,02,06,36,12.60
2016,06,02,06,37,12.60
2016,06,02,06,38,12.60
2016,06,02,06,39,12.60
2016,06,02,06,40,12.60
2016,06,02,06,41,12.60
2016,06,02,06,42,12.60
2016,06,02,06,43,12.70
2016,06,02,06,44,12.70
2016,06,02,06,45,12.70
2016,06,02,06,46,12.70
2016,06,02,06,47,12.70
2016,06,02,06,48,12.70
2016,06,02,06,49,12.70
2016,06,02,06,50,12.70
2016,06,02,06,51,12.60
2016,06,02,06,52,12.60
2016,06,02,06,53,12.60
2016,06,02,06,54,12.60
2016,06,02,06,55,12.60
2016,06,02,06,56,12.60
2016,06,02,06,57,12.60
2016,06,02,06,58,12.60
2016,06,02,06,59,12.60
2016,06,02,07,00,12.60
2016,06,02,07,01,12.60
2016,06,02,07,02,12.60
2016,06,02,07,03,12.60
2016,06,02,07,04,12.60
2016,06,02,07,05,12.60
2016,06,02,07,06,12.60
2016,06,02,07,07,12.60
2016,06,02,07,08,12.60
2016,06,02,07,09,12.60
2016,06,02,07,10,12.70
2016,06,02,07,11,12.70
2016,06,02,07,12,12.70
2016,06,02,07,13,12.70
2016,06,02,07,14,12.70
2016,06,02,07,15,12.70
2016,06,02,07,16,12.70
2016,06,02,07,17,12.70
2016,06,02,07,18,12.80
2016,06,02,07,19,12.80
2016,06,02,07,20,12.80
2016,06,02,07,21,12.80
2016,06,02,07,22,12.80
2016,06,02,07,23,12.80
2016,06,02,07,24,12.80
2016,06,02,07,25,12.80
2016,06,02,07,26,12.80
2016,06,02,07,27,12.80
2016,06,02,07,28,12.90
2016,06,02,07,29,12.90
2016,06,02,07,30,13.00
2016,06,02,07,31,13.00
2016,06,02,07,32,13.10
2016,06,02,07,33,13.10
2016,06,02,07,34,13.10
2016,06,02,07,35,13.10
2016,06,02,07,36,13.20
2016,06,02,07,37,13.20
2016,06,02,07,38,13.20
2016,06,02,07,39,13.20
2016,06,02,07,40,13.20
2016,06,02,07,41,13.20
2016,06,02,07,42,13.20
2016,06,02,07,43,13.20
2016,06,02,07,44,13.30
2016,06,02,07,45,13.30
2016,06,02,07,46,13.30
2016,06,02,07,47,13.30
2016,06,02,07,48,13.30
2016,06,02,07,49,13.30
2016,06,02,07,50,13.20
2016,06,02,07,51,13.20
2016,06,02,07,52,13.20
2016,06,02,07,53,13.20
2016,06,02,07,54,13.30
2016,06,02,07,55,13.30
2016,06,02,07,56,13.30
2016,06,02,07,57,13.30
2016,06,02,07,58,13.30
2016,06,02,07,59,13.30
2016,06,02,08,00,13.30
2016,06,02,08,01,13.30
2016,06,02,08,02,13.30
2016,06,02,08,03,13.30
2016,06,02,08,04,13.30
2016,06,02,08,05,13.40
2016,06,02,08,06,13.40
2016,06,02,08,07,13.40
2016,06,02,08,08,13.30
2016,06,02,08,09,13.30
2016,06,02,08,10,13.40
2016,06,02,08,11,13.40
2016,06,02,08,12,13.40
2016,06,02,08,13,13.40
2016,06,02,08,14,13.40
2016,06,02,08,15,13.40
2016,06,02,08,16,13.40
2016,06,02,08,17,13.50
2016,06,02,08,18,13.50
2016,06,02,08,19,13.60
2016,06,02,08,20,13.70
2016,06,02,08,21,13.70
2016,06,02,08,22,13.80
2016,06,02,08,23,13.80
2016,06,02,08,24,13.90
2016,06,02,08,25,13.90
2016,06,02,08,26,13.90
2016,06,02,08,27,13.90
2016,06,02,08,28,13.90
2016,06,02,08,29,14.00
2016,06,02,08,30,14.00
2016,06,02,08,31,14.10
2016,06,02,08,32,14.10
2016,06,02,08,33,14.10
2016,06,02,08,34,14.10
2016,06,02,08,35,14.10
2016,06,02,08,36,14.20
2016,06,02,08,37,14.20
2016,06,02,08,38,14.30
2016,06,02,08,39,14.50
2016,06,02,08,40,14.60
2016,06,02,08,41,14.70
2016,06,02,08,42,14.80
2016,06,02,08,43,14.80
2016,06,02,08,44,14.80
2016,06,02,08,45,14.70
2016,06,02,08,46,14.70
2016,06,02,08,47,14.70
2016,06,02,08,48,14.70
2016,06,02,08,49,14.70
2016,06,02,08,50,14.70
2016,06,02,08,51,14.60
2016,06,02,08,52,14.60
2016,06,02,08,53,14.60
2016,06,02,08,54,14.70
2016,06,02,08,55,14.70
2016,06,02,08,56,14.80
2016,06,02,08,57,14.80
2016,06,02,08,58,14.80
2016,06,02,08,59,14.80
2016,06,02,09,00,14.90
2016,06,02,09,01,14.90
2016,06,02,09,02,15.00
2016,06,02,09,03,15.00
2016,06,02,09,04,15.00
2016,06,02,09,05,15.00
2016,06,02,09,06,15.00
2016,06,02,09,07,15.10
2016,06,02,09,08,15.10
2016,06,02,09,09,15.10
2016,06,02,09,10,15.10
2016,06,02,09,11,15.10
2016,06,02,09,12,15.10
2016,06,02,09,13,15.10
2016,06,02,09,14,15.20
2016,06,02,09,15,15.20
2016,06,02,09,16,15.40
2016,06,02,09,17,15.40
2016,06,02,09,18,15.40
2016,06,02,09,19,15.40
2016,06,02,09,20,15.40
2016,06,02,09,21,15.30
2016,06,02,09,22,15.30
2016,06,02,09,23,15.30
2016,06,02,09,24,15.30
2016,06,02,09,25,15.30
2016,06,02,09,26,15.30
2016,06,02,09,27,15.30
2016,06,02,09,28,15.30
2016,06,02,09,29,15.40
2016,06,02,09,30,15.50
2016,06,02,09,31,15.50
2016,06,02,09,32,15.60
2016,06,02,09,33,15.60
2016,06,02,09,34,15.70
2016,06,02,09,35,15.80
2016,06,02,09,36,15.90
2016,06,02,09,37,15.80
2016,06,02,09,38,15.80
2016,06,02,09,39,15.70
2016,06,02,09,40,15.70
2016,06,02,09,41,15.70
2016,06,02,09,42,15.60
2016,06,02,09,43,15.60
2016,06,02,09,44,15.60
2016,06,02,09,45,15.60
2016,06,02,09,46,15.60
2016,06,02,09,47,15.70
2016,06,02,09,48,15.60
2016,06,02,09,49,15.60
2016,06,02,09,50,15.60
2016,06,02,09,51,15.60
2016,06,02,09,52,15.60
2016,06,02,09,53,15.70
2016,06,02,09,54,15.70
2016,06,02,09,55,15.70
2016,06,02,09,56,15.70
2016,06,02,09,57,15.70
2016,06,02,09,58,15.70
2016,06,02,09,59,15.70
2016,06,02,10,00,15.80
2016,06,02,10,01,15.80
2016,06,02,10,02,15.80
2016,06,02,10,03,15.80
2016,06,02,10,04,15.70
2016,06,02,10,05,15.70
2016,06,02,10,06,15.60
2016,06,02,10,07,15.60
2016,06,02,10,08,15.60
2016,06,02,10,09,15.60
2016,06,02,10,10,15.60
2016,06,02,10,11,15.60
2016,06,02,10,12,15.70
2016,06,02,10,13,15.70
2016,06,02,10,14,15.80
2016,06,02,10,15,15.80
2016,06,02,10,16,15.80
2016,06,02,10,17,15.90
2016,06,02,10,18,15.80
2016,06,02,10,19,15.80
2016,06,02,10,20,15.80
2016,06,02,10,21,15.80
2016,06,02,10,22,15.80
2016,06,02,10,23,15.80
2016,06,02,10,24,15.80
2016,06,02,10,25,15.80
2016,06,02,10,26,15.70
2016,06,02,10,27,15.70
2016,06,02,10,28,15.70
2016,06,02,10,29,15.70
2016,06,02,10,30,15.70
2016,06,02,10,31,15.70
2016,06,02,10,32,15.70
2016,06,02,10,33,15.70
2016,06,02,10,34,15.70
2016,06,02,10,35,15.70
2016,06,02,10,36,15.70
2016,06,02,10,37,15.70
2016,06,02,10,38,15.70
2016,06,02,10,39,15.70
2016,06,02,10,40,15.70
2016,06,02,10,41,15.60
2016,06,02,10,42,15.60
2016,06,02,10,43,15.60
2016,06,02,10,44,15.60
2016,06,02,10,45,15.60
2016,06,02,10,46,15.50
2016,06,02,10,47,15.50
2016,06,02,10,48,15.50
2016,06,02,10,49,15.40
2016,06,02,10,50,15.40
2016,06,02,10,51,15.40
2016,06,02,10,52,15.40
2016,06,02,10,53,15.40
2016,06,02,10,54,15.40
2016,06,02,10,55,15.30
2016,06,02,10,56,15.30
2016,06,02,10,57,15.30
2016,06,02,10,58,15.30
2016,06,02,10,59,15.30
2016,06,02,11,00,15.30
2016,06,02,11,01,15.30
2016,06,02,11,02,15.30
2016,06,02,11,03,15.30
2016,06,02,11,04,15.30
2016,06,02,11,05,15.40
2016,06,02,11,06,15.40
2016,06,02,11,07,15.40
2016,06,02,11,08,15.40
2016,06,02,11,09,15.40
2016,06,02,11,10,15.40
2016,06,02,11,11,15.40
2016,06,02,11,12,15.40
2016,06,02,11,13,15.40
2016,06,02,11,14,15.40
2016,06,02,11,15,15.30
2016,06,02,11,16,15.30
2016,06,02,11,17,15.30
2016,06,02,11,18,15.30
2016,06,02,11,19,15.40
2016,06,02,11,20,15.40
2016,06,02,11,21,15.40
2016,06,02,11,22,15.50
2016,06,02,11,23,15.50
2016,06,02,11,24,15.60
2016,06,02,11,25,15.60
2016,06,02,11,26,15.70
2016,06,02,11,27,15.60
2016,06,02,11,28,15.60
2016,06,02,11,29,15.70
2016,06,02,11,30,15.70
2016,06,02,11,31,15.70
2016,06,02,11,32,15.80
2016,06,02,11,33,15.90
2016,06,02,11,34,16.00
2016,06,02,11,35,16.10
2016,06,02,11,36,16.10
2016,06,02,11,37,16.10
2016,06,02,11,38,16.10
2016,06,02,11,39,16.00
2016,06,02,11,40,16.00
2016,06,02,11,41,16.00
2016,06,02,11,42,16.10
2016,06,02,11,43,16.10
2016,06,02,11,44,16.00
2016,06,02,11,45,15.90
2016,06,02,11,46,15.90
2016,06,02,11,47,15.90
2016,06,02,11,48,15.90
2016,06,02,11,49,16.00
2016,06,02,11,50,16.00
2016,06,02,11,51,16.10
2016,06,02,11,52,16.10
2016,06,02,11,53,16.20
2016,06,02,11,54,16.20
2016,06,02,11,55,16.20
2016,06,02,11,56,16.30
2016,06,02,11,57,16.30
2016,06,02,11,58,16.30
2016,06,02,11,59,16.40
2016,06,02,12,00,16.40
2016,06,02,12,01,16.40
2016,06,02,12,02,16.40
2016,06,02,12,03,16.40
2016,06,02,12,04,16.40
2016,06,02,12,05,16.30
2016,06,02,12,06,16.30
2016,06,02,12,07,16.30
2016,06,02,12,08,16.40
2016,06,02,12,09,16.50
2016,06,02,12,10,16.50
2016,06,02,12,11,16.50
2016,06,02,12,12,16.50
2016,06,02,12,13,16.60
2016,06,02,12,14,16.60
2016,06,02,12,15,16.60
2016,06,02,12,16,16.70
2016,06,02,12,17,16.70
2016,06,02,12,18,16.70
2016,06,02,12,19,16.70
2016,06,02,12,20,16.60
2016,06,02,12,21,16.60
2016,06,02,12,22,16.60
2016,06,02,12,23,16.60
2016,06,02,12,24,16.70
2016,06,02,12,25,16.70
2016,06,02,12,26,16.70
2016,06,02,12,27,16.70
2016,06,02,12,28,16.80
2016,06,02,12,29,16.90
2016,06,02,12,30,16.90
2016,06,02,12,31,16.90
2016,06,02,12,32,16.90
2016,06,02,12,33,16.90
2016,06,02,12,34,16.80
2016,06,02,12,35,16.80
2016,06,02,12,36,16.80
2016,06,02,12,37,16.80
2016,06,02,12,38,16.80
2016,06,02,12,39,16.80
2016,06,02,12,40,16.90
2016,06,02,12,41,16.90
2016,06,02,12,42,16.90
2016,06,02,12,43,16.90
2016,06,02,12,44,16.90
2016,06,02,12,45,16.90
2016,06,02,12,46,16.90
2016,06,02,12,47,16.90
2016,06,02,12,48,16.90
2016,06,02,12,49,16.80
2016,06,02,12,50,16.80
2016,06,02,12,51,16.90
2016,06,02,12,52,16.90
2016,06,02,12,53,16.90
2016,06,02,12,54,16.80
2016,06,02,12,55,16.90
2016,06,02,12,56,16.90
2016,06,02,12,57,16.90
2016,06,02,12,58,16.90
2016,06,02,12,59,16.90
2016,06,02,13,00,16.90
2016,06,02,13,01,16.90
2016,06,02,13,02,16.90
2016,06,02,13,03,16.90
2016,06,02,13,04,16.90
2016,06,02,13,05,16.90
2016,06,02,13,06,17.00
2016,06,02,13,07,17.10
2016,06,02,13,08,17.10
2016,06,02,13,09,17.10
2016,06,02,13,10,17.10
2016,06,02,13,11,17.20
2016,06,02,13,12,17.30
2016,06,02,13,13,17.30
2016,06,02,13,14,17.30
2016,06,02,13,15,17.40
2016,06,02,13,16,17.40
2016,06,02,13,17,17.30
2016,06,02,13,18,17.30
2016,06,02,13,19,17.20
2016,06,02,13,20,17.20
2016,06,02,13,21,17.10
2016,06,02,13,22,17.10
2016,06,02,13,23,17.10
2016,06,02,13,24,17.10
2016,06,02,13,25,17.10
2016,06,02,13,26,17.10
2016,06,02,13,27,17.10
2016,06,02,13,28,17.10
2016,06,02,13,29,17.10
2016,06,02,13,30,17.10
2016,06,02,13,31,17.10
2016,06,02,13,32,17.10
2016,06,02,13,33,17.10
2016,06,02,13,34,17.10
2016,06,02,13,35,17.10
2016,06,02,13,36,17.10
2016,06,02,13,37,17.10
2016,06,02,13,38,17.10
2016,06,02,13,39,17.10
2016,06,02,13,40,17.10
2016,06,02,13,41,17.10
2016,06,02,13,42,17.10
2016,06,02,13,43,17.10
2016,06,02,13,44,17.00
2016,06,02,13,45,17.00
2016,06,02,13,46,16.90
2016,06,02,13,47,16.90
2016,06,02,13,48,16.90
2016,06,02,13,49,16.90
2016,06,02,13,50,17.00
2016,06,02,13,51,17.00
2016,06,02,13,52,17.10
2016,06,02,13,53,17.20
2016,06,02,13,54,17.30
2016,06,02,13,55,17.30
2016,06,02,13,56,17.40
2016,06,02,13,57,17.40
2016,06,02,13,58,17.50
2016,06,02,13,59,17.50
2016,06,02,14,00,17.50
2016,06,02,14,01,17.50
2016,06,02,14,02,17.50
2016,06,02,14,03,17.60
2016,06,02,14,04,17.60
2016,06,02,14,05,17.70
2016,06,02,14,06,17.80
2016,06,02,14,07,17.80
2016,06,02,14,08,17.80
2016,06,02,14,09,17.80
2016,06,02,14,10,17.80
2016,06,02,14,11,17.80
2016,06,02,14,12,17.80
2016,06,02,14,13,17.80
2016,06,02,14,14,17.70
2016,06,02,14,15,17.80
2016,06,02,14,16,17.80
2016,06,02,14,17,17.80
2016,06,02,14,18,17.70
2016,06,02,14,19,17.60
2016,06,02,14,20,17.60
2016,06,02,14,21,17.60
2016,06,02,14,22,17.60
2016,06,02,14,23,17.70
2016,06,02,14,24,17.80
2016,06,02,14,25,17.80
2016,06,02,14,26,17.80
2016,06,02,14,27,17.80
2016,06,02,14,28,17.70
2016,06,02,14,29,17.70
2016,06,02,14,30,17.60
2016,06,02,14,31,17.60
2016,06,02,14,32,17.50
2016,06,02,14,33,17.50
2016,06,02,14,34,17.50
2016,06,02,14,35,17.50
2016,06,02,14,36,17.60
2016,06,02,14,37,17.60
2016,06,02,14,38,17.70
2016,06,02,14,39,17.70
2016,06,02,14,40,17.60
2016,06,02,14,41,17.60
2016,06,02,14,42,17.50
2016,06,02,14,43,17.40
2016,06,02,14,44,17.40
2016,06,02,14,45,17.40
2016,06,02,14,46,17.50
2016,06,02,14,47,17.60
2016,06,02,14,48,17.60
2016,06,02,14,49,17.60
2016,06,02,14,50,17.50
2016,06,02,14,51,17.40
2016,06,02,14,52,17.40
2016,06,02,14,53,17.40
2016,06,02,14,54,17.40
2016,06,02,14,55,17.40
2016,06,02,14,56,17.40
2016,06,02,14,57,17.40
2016,06,02,14,58,17.40
2016,06,02,14,59,17.40
2016,06,02,15,00,17.40
2016,06,02,15,01,17.40
2016,06,02,15,02,17.40
2016,06,02,15,03,17.40
2016,06,02,15,04,17.40
2016,06,02,15,05,17.30
2016,06,02,15,06,17.30
2016,06,02,15,07,17.30
2016,06,02,15,08,17.20
2016,06,02,15,09,17.20
2016,06,02,15,10,17.10
2016,06,02,15,11,17.10
2016,06,02,15,12,17.10
2016,06,02,15,13,17.00
2016,06,02,15,14,16.90
2016,06,02,15,15,16.90
2016,06,02,15,16,16.90
2016,06,02,15,17,17.00
2016,06,02,15,18,16.90
2016,06,02,15,19,16.90
2016,06,02,15,20,17.00
2016,06,02,15,21,17.00
2016,06,02,15,22,17.00
2016,06,02,15,23,17.00
2016,06,02,15,24,17.10
2016,06,02,15,25,17.10
2016,06,02,15,26,17.20
2016,06,02,15,27,17.20
2016,06,02,15,28,17.20
2016,06,02,15,29,17.10
2016,06,02,15,30,17.10
2016,06,02,15,31,17.10
2016,06,02,15,32,17.20
2016,06,02,15,33,17.30
2016,06,02,15,34,17.20
2016,06,02,15,35,17.10
2016,06,02,15,36,17.10
2016,06,02,15,37,17.10
2016,06,02,15,38,17.20
2016,06,02,15,39,17.20
2016,06,02,15,40,17.20
2016,06,02,15,41,17.10
2016,06,02,15,42,16.90
2016,06,02,15,43,16.70
2016,06,02,15,44,16.60
2016,06,02,15,45,16.50
2016,06,02,15,46,16.50
2016,06,02,15,47,16.50
2016,06,02,15,48,16.50
2016,06,02,15,49,16.40
2016,06,02,15,50,16.50
2016,06,02,15,51,16.50
2016,06,02,15,52,16.50
2016,06,02,15,53,16.60
2016,06,02,15,54,16.60
2016,06,02,15,55,16.60
2016,06,02,15,56,16.60
2016,06,02,15,57,16.60
2016,06,02,15,58,16.60
2016,06,02,15,59,16.70
2016,06,02,16,00,16.70
2016,06,02,16,01,16.70
2016,06,02,16,02,16.70
2016,06,02,16,03,16.70
2016,06,02,16,04,16.70
2016,06,02,16,05,16.60
2016,06,02,16,06,16.50
2016,06,02,16,07,16.40
2016,06,02,16,08,16.30
2016,06,02,16,09,16.30
2016,06,02,16,10,16.30
2016,06,02,16,11,16.30
2016,06,02,16,12,16.30
2016,06,02,16,13,16.30
2016,06,02,16,14,16.20
2016,06,02,16,15,16.20
2016,06,02,16,16,16.20
2016,06,02,16,17,16.20
2016,06,02,16,18,16.20
2016,06,02,16,19,16.20
2016,06,02,16,20,16.30
2016,06,02,16,21,16.30
2016,06,02,16,22,16.20
2016,06,02,16,23,16.20
2016,06,02,16,24,16.10
2016,06,02,16,25,16.10
2016,06,02,16,26,16.20
2016,06,02,16,27,16.20
2016,06,02,16,28,16.30
2016,06,02,16,29,16.40
2016,06,02,16,30,16.40
2016,06,02,16,31,16.50
2016,06,02,16,32,16.60
2016,06,02,16,33,16.60
2016,06,02,16,34,16.70
2016,06,02,16,35,16.70
2016,06,02,16,36,16.70
2016,06,02,16,37,16.70
2016,06,02,16,38,16.70
2016,06,02,16,39,16.70
2016,06,02,16,40,16.80
2016,06,02,16,41,16.80
2016,06,02,16,42,16.80
2016,06,02,16,43,16.90
2016,06,02,16,44,16.90
2016,06,02,16,45,17.00
2016,06,02,16,46,17.00
2016,06,02,16,47,17.10
2016,06,02,16,48,17.10
2016,06,02,16,49,17.20
2016,06,02,16,50,17.20
2016,06,02,16,51,17.20
2016,06,02,16,52,17.10
2016,06,02,16,53,17.10
2016,06,02,16,54,16.90
2016,06,02,16,55,16.80
2016,06,02,16,56,16.60
2016,06,02,16,57,16.50
2016,06,02,16,58,16.50
2016,06,02,16,59,16.50
2016,06,02,17,00,16.50
2016,06,02,17,01,16.50
2016,06,02,17,02,16.50
2016,06,02,17,03,16.50
2016,06,02,17,04,16.40
2016,06,02,17,05,16.40
2016,06,02,17,06,16.40
2016,06,02,17,07,16.40
2016,06,02,17,08,16.40
2016,06,02,17,09,16.40
2016,06,02,17,10,16.50
2016,06,02,17,11,16.60
2016,06,02,17,12,16.60
2016,06,02,17,13,16.60
2016,06,02,17,14,16.70
2016,06,02,17,15,16.70
2016,06,02,17,16,16.80
2016,06,02,17,17,16.90
2016,06,02,17,18,16.90
2016,06,02,17,19,16.90
2016,06,02,17,20,16.80